Wind_Speed
25 25 23 22 21 19 16 14 14 14 18 17 16 13 11 13 15 14 12 12 12 11 9 9 10 10 10 10 11 11 11 11 11 12 12 13 12 11 9 9 8 8 7 7
26 25 23 23 22 21 21 20 18 17 19 20 18 16 14 15 15 15 15 13 13 13 11 10 11 10 10 11 11 12 12 12 12 13 13 13 12 10 9 9 8 8 7 7
26 24 25 25 24 24 24 22 20 20 20 20 19 18 15 17 17 17 16 15 14 14 13 11 11 11 11 12 12 12 13 13 13 13 13 13 12 10 9 9 8 8 7 7
27 26 26 26 25 25 25 23 22 22 22 20 20 18 17 18 18 18 18 16 15 14 14 13 12 11 12 12 12 13 13 14 13 13 12 13 12 10 9 9 9 8 8 7
28 27 27 26 25 25 24 24 24 23 23 22 20 18 17 18 19 19 18 17 15 15 15 15 14 12 12 12 12 13 14 14 13 12 12 12 12 11 10 9 9 10 9 8
27 28 27 26 26 26 25 26 25 24 23 24 21 20 20 19 18 18 17 18 17 17 16 15 15 14 14 13 13 13 14 14 12 12 11 12 12 11 10 10 9 10 9 8
28 28 28 27 26 27 26 26 24 23 22 22 20 21 20 18 17 17 18 18 17 17 17 15 15 15 14 13 13 13 13 13 12 11 11 11 11 10 10 10 10 9 8 8
27 27 27 27 27 27 26 25 23 19 16 16 17 20 20 20 19 20 20 18 18 18 17 15 15 15 14 14 13 13 13 12 12 11 11 10 10 10 10 10 10 9 8 8
23 24 26 27 27 27 26 26 23 20 16 15 16 17 18 20 21 22 21 20 19 18 16 16 16 15 14 14 14 12 11 11 11 11 10 10 10 10 10 10 10 8 7 7
23 22 25 27 27 28 27 25 25 25 21 18 16 18 17 20 20 21 20 20 19 18 17 17 16 16 15 14 14 13 12 11 11 11 11 10 11 11 11 11 9 8 8 8
27 24 23 26 27 26 27 27 26 25 24 19 17 17 17 19 19 18 19 19 18 18 18 18 18 16 16 15 13 13 12 11 11 11 11 11 11 11 11 11 10 9 9 9
29 26 24 24 25 25 26 27 27 27 25 24 20 18 18 18 19 19 18 19 19 19 18 18 18 17 16 15 14 13 13 12 12 11 11 11 11 12 12 11 11 10 10 9
31 29 26 24 24 25 27 27 28 27 26 25 21 20 19 19 19 18 19 20 20 19 18 18 18 17 17 15 15 14 13 13 12 11 12 12 12 12 12 12 12 11 11 10
31 31 28 24 22 23 25 27 28 28 28 25 24 21 21 20 21 21 22 22 20 19 19 19 17 16 16 16 15 15 14 13 13 12 13 13 13 13 13 13 13 13 12 11
31 32 31 29 26 23 24 26 27 28 28 25 24 24 22 21 23 24 24 23 21 20 20 19 18 16 16 16 16 16 15 15 14 14 14 14 15 15 15 14 13 13 13 13
32 32 31 32 30 26 25 25 26 27 27 26 26 26 27 27 25 25 25 24 22 21 19 19 18 17 17 17 16 16 16 15 15 14 15 15 16 16 15 14 14 13 13 13
32 33 32 32 31 28 27 27 27 27 27 26 27 27 28 28 26 25 25 25 24 23 21 20 19 19 18 18 17 17 16 16 16 16 15 15 16 15 15 14 14 14 14 14
32 33 33 32 30 29 27 26 27 28 28 29 30 30 31 30 29 28 27 27 26 24 22 21 20 20 19 18 18 18 18 17 17 17 16 16 16 15 14 13 14 14 14 15
32 32 32 31 30 30 28 29 29 29 29 30 31 31 31 28 29 29 28 27 27 25 24 23 22 21 20 20 20 20 20 19 19 18 18 17 16 15 15 14 14 15 15 16
31 32 32 31 30 29 29 28 27 28 30 31 31 32 32 31 30 29 28 28 27 26 25 25 24 23 22 22 21 21 21 20 19 19 18 17 16 15 16 16 15 16 16 16
30 31 32 31 31 30 29 29 28 29 32 32 32 33 33 33 31 30 29 28 27 26 26 25 24 24 24 23 22 22 21 20 20 20 19 18 17 17 17 17 17 18 17 17
28 29 30 31 31 31 31 31 31 31 31 30 31 33 33 33 32 32 30 29 27 27 27 26 26 26 26 25 24 23 22 21 21 21 21 19 18 18 18 18 18 18 18 18
30 31 32 33 33 32 33 33 33 33 33 32 32 33 33 33 33 32 32 30 28 27 27 27 27 27 26 26 25 24 24 23 22 21 21 20 20 19 19 18 18 18 18 18
31 32 33 34 35 34 34 33 32 33 33 32 33 33 34 33 32 32 31 30 29 28 28 28 27 26 26 26 26 25 24 23 23 22 21 20 20 20 20 20 19 19 19 19
32 33 34 35 34 32 33 33 33 33 33 32 33 34 34 32 32 32 31 30 30 30 28 27 27 27 27 27 27 26 24 23 23 23 21 21 21 22 22 21 21 21 21 21
32 33 33 34 34 34 33 32 33 32 33 34 33 34 33 32 32 32 31 30 30 30 29 28 27 26 26 26 26 26 25 24 24 24 23 22 22 22 22 22 22 22 22 22
Wind_Direction
229 229 228 229 228 222 216 219 229 238 248 251 255 251 251 258 269 273 274 277 285 296 309 320 324 328 336 337 336 337 339 342 344 342 341 339 338 339 335 329 326 322 313 304
229 230 228 228 228 222 219 221 220 228 240 246 250 249 244 256 266 272 272 270 275 286 299 309 315 320 329 332 331 331 332 334 338 338 338 341 340 338 335 330 326 317 310 304
229 229 229 226 227 226 226 226 223 228 238 247 252 253 247 256 263 265 270 271 273 280 288 298 305 311 319 326 328 326 326 328 332 334 335 336 338 338 335 331 333 323 311 301
227 227 229 228 228 228 227 227 226 230 237 245 252 254 253 257 264 269 269 269 272 277 285 292 296 300 309 316 321 325 326 324 325 328 330 332 334 334 331 331 331 325 311 298
228 229 230 229 228 228 226 228 228 230 234 240 246 250 250 254 260 266 269 267 267 272 278 285 290 293 298 304 313 320 322 322 321 323 327 329 328 328 326 325 327 324 309 294
228 232 231 230 228 228 227 230 231 233 236 242 243 242 245 249 255 257 263 264 265 272 275 278 285 289 291 298 306 313 316 316 318 319 322 327 327 325 326 325 321 320 309 296
226 231 232 230 228 229 228 229 231 236 240 248 249 244 243 246 253 253 258 263 265 268 272 277 279 284 289 293 299 307 311 311 313 315 316 322 326 327 327 328 324 318 308 299
229 231 232 231 228 230 230 229 228 227 243 255 250 245 245 245 245 250 255 258 262 266 269 272 274 277 281 288 293 300 304 307 310 312 314 320 324 327 327 327 327 325 314 300
227 233 233 233 228 227 227 226 222 220 225 240 250 250 250 251 247 248 253 254 255 261 266 267 268 273 277 283 287 292 296 300 303 306 310 314 319 322 323 325 327 326 321 311
214 225 229 233 229 225 223 224 218 216 221 231 242 248 251 256 255 250 249 253 256 257 259 262 266 270 276 279 280 286 290 294 297 300 305 309 315 319 321 324 325 323 320 317
213 219 223 231 230 223 221 219 218 221 220 223 238 241 243 252 260 255 249 249 253 255 259 262 264 266 270 273 276 279 282 288 293 296 301 305 311 317 319 319 316 314 314 314
214 217 218 230 232 223 223 220 219 221 220 217 227 240 237 249 260 258 249 248 249 253 259 262 264 265 266 269 272 275 278 282 287 291 298 301 307 312 314 316 316 316 315 312
213 213 213 217 228 229 223 222 219 221 221 219 224 243 242 246 255 252 247 247 247 252 257 257 260 264 264 267 269 272 274 276 283 289 295 299 301 305 308 308 310 312 312 310
217 217 212 211 222 230 229 224 221 220 220 221 224 236 246 248 249 249 248 248 249 251 253 255 260 265 266 267 267 269 271 275 279 283 289 292 294 297 300 303 302 305 305 304
217 217 214 209 210 218 227 228 223 222 221 219 224 230 241 248 252 252 250 251 251 252 251 254 259 260 265 266 265 267 268 272 275 279 285 288 291 294 295 296 297 297 297 297
220 218 216 213 212 214 219 225 226 223 220 219 223 231 237 240 245 247 249 252 253 254 250 252 254 257 262 264 265 268 269 272 274 278 284 287 290 292 290 291 292 291 293 294
222 220 219 217 218 222 222 222 225 225 222 221 226 230 238 243 244 248 251 252 252 253 251 251 254 258 261 263 265 268 270 271 273 277 282 287 292 292 289 288 288 289 291 293
223 222 221 220 220 225 227 224 226 225 224 223 225 229 235 240 246 249 250 252 253 253 253 253 253 256 259 262 264 266 269 271 274 278 279 283 289 286 286 285 286 287 288 291
224 222 220 218 222 227 227 225 225 226 227 226 228 230 235 239 244 247 248 249 251 252 252 252 252 254 258 260 263 265 267 270 273 274 276 280 283 285 286 285 287 289 291 293
225 222 220 219 220 225 228 229 228 231 231 230 231 232 233 237 242 246 247 247 249 249 250 250 251 253 256 260 262 265 266 268 272 272 271 273 277 282 284 287 289 291 294 295
223 220 219 218 220 226 229 229 227 230 233 232 233 233 234 237 240 241 244 247 249 249 250 251 252 252 254 257 259 262 263 267 271 270 268 271 274 277 282 287 289 291 293 295
226 222 221 221 223 227 229 230 229 231 234 235 235 236 237 237 239 242 243 245 247 249 251 253 253 253 255 254 256 259 262 266 270 270 269 270 270 272 277 284 289 290 291 293
223 222 223 224 225 228 230 231 231 232 234 235 236 236 238 240 241 243 245 246 248 249 251 252 253 253 253 252 254 256 259 263 267 269 269 268 269 270 274 280 284 286 289 291
225 226 227 228 229 232 232 232 233 233 234 235 237 236 238 240 241 243 243 245 246 248 249 251 251 251 251 252 253 255 257 261 263 265 266 266 268 269 272 276 279 281 285 288
227 228 229 229 232 233 233 235 234 235 235 236 236 237 239 240 241 241 242 244 244 245 247 248 249 250 251 253 254 256 256 258 261 262 263 265 268 270 272 274 277 280 284 287
226 227 230 229 232 235 234 236 237 236 234 234 236 236 237 238 237 238 241 242 244 244 245 246 247 249 251 253 254 256 257 259 260 261 263 265 268 271 273 274 276 278 282 285
Height
5884 5888 5891 5895 5898 5902 5907 5911 5915 5917 5916 5916 5917 5918 5918 5918 5918 5918 5918 5918 5917 5917 5917 5916 5915 5915 5914 5913 5913 5912 5911 5910 5910 5908 5907 5906 5905 5904 5903 5902 5902 5901 5901 5902
5880 5884 5888 5891 5895 5898 5903 5906 5911 5914 5913 5913 5914 5915 5917 5916 5917 5916 5916 5916 5916 5916 5916 5915 5915 5914 5913 5913 5912 5911 5911 5910 5909 5908 5907 5905 5904 5903 5902 5902 5901 5901 5901 5901
5876 5881 5884 5887 5891 5895 5898 5902 5907 5910 5908 5909 5911 5913 5914 5914 5914 5914 5914 5914 5914 5914 5914 5914 5914 5913 5913 5912 5911 5911 5910 5909 5908 5907 5906 5905 5904 5903 5902 5901 5901 5900 5900 5900
5871 5875 5878 5882 5886 5890 5894 5898 5901 5904 5904 5906 5909 5910 5911 5911 5911 5912 5912 5912 5912 5912 5912 5912 5912 5912 5911 5911 5910 5910 5909 5908 5907 5906 5906 5904 5903 5902 5901 5900 5900 5899 5899 5899
5866 5870 5873 5877 5882 5886 5890 5893 5896 5898 5900 5902 5905 5907 5909 5908 5908 5909 5909 5909 5910 5910 5910 5910 5909 5910 5909 5909 5909 5908 5907 5907 5906 5905 5905 5904 5903 5902 5901 5900 5899 5899 5898 5898
5862 5865 5868 5873 5877 5881 5885 5887 5890 5893 5896 5898 5901 5903 5905 5905 5905 5906 5906 5906 5907 5908 5907 5907 5907 5907 5906 5906 5907 5907 5906 5905 5905 5904 5903 5903 5902 5901 5900 5899 5898 5898 5897 5896
5856 5859 5863 5868 5872 5876 5880 5884 5887 5889 5891 5894 5898 5899 5901 5902 5902 5902 5903 5904 5904 5905 5905 5905 5905 5905 5905 5905 5905 5905 5904 5903 5903 5903 5902 5901 5901 5900 5899 5898 5897 5896 5896 5895
5851 5855 5859 5862 5867 5871 5875 5879 5884 5888 5891 5892 5893 5894 5897 5898 5898 5899 5900 5901 5901 5901 5902 5903 5903 5903 5903 5903 5903 5903 5902 5902 5902 5901 5900 5900 5899 5898 5898 5897 5896 5895 5894 5894
5848 5852 5854 5857 5862 5866 5870 5874 5880 5884 5887 5890 5891 5891 5891 5893 5894 5895 5896 5897 5898 5898 5899 5899 5900 5900 5900 5900 5900 5900 5900 5900 5900 5899 5899 5898 5898 5897 5896 5895 5894 5893 5893 5892
5842 5847 5849 5852 5856 5860 5865 5870 5874 5878 5882 5885 5888 5888 5889 5888 5890 5891 5892 5893 5894 5895 5895 5896 5896 5897 5897 5897 5898 5898 5898 5898 5898 5898 5898 5897 5896 5895 5895 5894 5893 5892 5892 5891
5836 5841 5845 5847 5850 5856 5860 5865 5869 5873 5877 5882 5884 5886 5883 5883 5885 5887 5888 5889 5890 5891 5892 5892 5892 5893 5894 5895 5895 5896 5896 5896 5896 5896 5896 5895 5895 5894 5893 5892 5891 5891 5890 5890
5831 5836 5840 5843 5846 5850 5855 5859 5864 5868 5871 5875 5878 5881 5877 5879 5881 5883 5884 5886 5887 5887 5888 5888 5889 5890 5890 5891 5892 5893 5894 5894 5894 5894 5894 5893 5893 5892 5891 5890 5890 5889 5889 5888
5825 5830 5834 5839 5843 5846 5849 5853 5858 5863 5867 5870 5875 5877 5874 5876 5877 5879 5880 5881 5882 5884 5885 5885 5885 5886 5887 5888 5889 5890 5891 5891 5892 5892 5891 5891 5890 5890 5889 5888 5888 5887 5887 5886
5819 5824 5830 5835 5838 5841 5844 5848 5852 5857 5861 5865 5869 5871 5869 5870 5873 5874 5875 5877 5878 5879 5881 5882 5882 5883 5884 5885 5886 5887 5888 5888 5888 5889 5889 5888 5888 5887 5886 5886 5885 5885 5884 5883
5813 5818 5823 5827 5831 5835 5838 5842 5846 5851 5855 5860 5864 5865 5866 5866 5867 5870 5871 5872 5874 5876 5877 5878 5880 5880 5881 5882 5883 5883 5884 5884 5885 5885 5885 5885 5885 5884 5883 5882 5882 5881 5881 5881
5807 5812 5816 5821 5824 5829 5833 5837 5840 5845 5850 5854 5858 5860 5860 5860 5861 5863 5865 5868 5870 5871 5871 5874 5876 5877 5878 5878 5879 5880 5880 5881 5881 5882 5882 5882 5881 5880 5879 5879 5878 5878 5878 5878
5801 5806 5811 5815 5819 5822 5827 5831 5835 5840 5844 5849 5852 5854 5854 5854 5855 5858 5861 5862 5865 5867 5868 5870 5871 5873 5874 5875 5875 5876 5876 5877 5878 5878 5879 5878 5878 5876 5876 5875 5875 5875 5875 5875
5795 5800 5805 5810 5814 5817 5824 5827 5830 5834 5838 5842 5844 5846 5848 5850 5851 5853 5856 5857 5859 5862 5864 5865 5867 5868 5870 5871 5872 5872 5873 5874 5874 5874 5875 5875 5874 5873 5873 5872 5872 5872 5872 5871
5789 5794 5799 5804 5807 5811 5817 5820 5823 5827 5831 5834 5837 5840 5841 5843 5846 5848 5850 5852 5854 5857 5859 5861 5862 5864 5866 5867 5867 5868 5869 5869 5870 5870 5871 5871 5871 5870 5870 5869 5869 5869 5868 5868
5783 5787 5793 5797 5801 5805 5811 5813 5816 5822 5824 5827 5830 5833 5835 5837 5841 5844 5845 5847 5849 5851 5853 5855 5857 5859 5861 5862 5863 5864 5864 5865 5866 5866 5867 5867 5867 5867 5866 5866 5865 5865 5865 5864
5776 5781 5785 5790 5794 5798 5803 5805 5809 5814 5817 5819 5822 5826 5828 5832 5834 5836 5839 5841 5844 5846 5847 5849 5852 5854 5856 5857 5858 5859 5860 5861 5861 5861 5862 5862 5863 5863 5862 5862 5862 5861 5861 5860
5771 5775 5780 5783 5787 5793 5795 5798 5802 5805 5808 5811 5815 5818 5821 5824 5826 5829 5832 5835 5838 5840 5842 5844 5846 5848 5849 5851 5853 5854 5855 5856 5856 5856 5857 5858 5858 5858 5858 5858 5858 5857 5857 5856
5764 5769 5772 5776 5781 5784 5786 5789 5793 5797 5800 5804 5808 5811 5814 5817 5820 5823 5826 5829 5831 5834 5836 5838 5840 5842 5844 5845 5847 5848 5850 5850 5851 5852 5852 5853 5853 5853 5853 5853 5853 5853 5852 5852
5757 5761 5765 5768 5772 5775 5777 5780 5785 5789 5793 5796 5800 5803 5806 5810 5813 5816 5819 5822 5825 5828 5830 5832 5834 5836 5838 5840 5841 5843 5844 5845 5846 5846 5847 5847 5847 5848 5848 5848 5848 5848 5848 5847
5750 5754 5757 5760 5764 5766 5769 5773 5777 5781 5785 5789 5793 5796 5799 5802 5806 5809 5812 5815 5818 5821 5823 5825 5828 5830 5832 5834 5835 5837 5838 5839 5840 5841 5841 5841 5842 5843 5843 5843 5843 5842 5842 5842
5742 5746 5749 5752 5756 5758 5762 5766 5769 5772 5776 5781 5784 5787 5791 5795 5798 5801 5805 5808 5811 5814 5817 5819 5822 5824 5826 5828 5829 5831 5832 5833 5834 5835 5835 5836 5837 5837 5838 5838 5837 5837 5837 5836